Regional Weather Roundup
Issued by NWS State College, PA

Home | Current Version | Previous Version | Text Only | Print | Product List | Glossary Off
Versions: 1 2 3 4 5 6 7 8 9 10 11 12 13 14 15 16 17 18 19 20 21 22 23 24 25 26 27 28 29 30 31 32 33 34 35 36 37 38 39 40 41 42 43 44 45 46 47 48 49 50

000
ASUS41 KCTP 240710
RWRCTP

REGIONAL WEATHER ROUNDUP
NATIONAL WEATHER SERVICE STATE COLLEGE PA
300 AM EDT FRI OCT 24 2014

Note: "fair" indicates few or no clouds below 12,000 feet with no
significant weather and/or obstructions to visibility.

* = STATION THAT DOES NOT REPORT PRECIPITATION /E.G. RAIN...SNOW...ETC/
    THUNDER OR FOG.

PAZ002>004-007>009-013>016-020>023-029>032-240800-
WESTERN PENNSYLVANIA

CITY           SKY/WX    TMP DP  RH WIND       PRES   REMARKS
ERIE           CLEAR     44  41  89 SW3       30.07S
MEADVILLE      PTCLDY    41  39  93 W7        30.07R FOG
FRANKLIN*      CLOUDY    43  41  93 W5        30.07S VSB 3/4
NEW CASTLE       N/A     38  38 100 CALM      30.10S FOG
BEAVER COUNTY  NOT AVBL
BUTLER*        CLEAR     41  37  87 W5        30.09S
PITTSBURGH INT PTCLDY    40  39  97 NW3       30.08S
PITTSBURGH     CLEAR     45  38  76 NW10      30.06F
INDIANA*       CLOUDY    48  45  87 W7        30.08S
LATROBE        NOT AVBL
WASHINGTON CO* CLEAR     34  32  93 CALM      30.10R VSB 1
$$

PAZ004>006-010>012-017>019-024>028-033>037-041-042-045-046-049>053-240800-
CENTRAL PENNSYLVANIA

CITY           SKY/WX    TMP DP  RH WIND       PRES   REMARKS
BRADFORD       CLEAR     41  36  82 NW8       30.00R
DUBOIS         CLEAR     45  43  93 W7        30.01S
CLEARFIELD     PTCLDY    46  42  86 W6        30.00R
JOHNSTOWN      CLOUDY    44  41  89 NW13      30.01F
ALTOONA        MOCLDY    48  42  80 W13       29.99F
STATE COLLEGE  PTCLDY    48  43  80 NW6       29.98R
WILLIAMSPORT   CLOUDY    56  43  61 NW12      29.92R
SELINSGROVE    CLOUDY    57  42  57 NW9       29.92R
FT INDIANTOWN  CLOUDY    57  45  62 NW12G21   29.88R
CAPITAL CITY   CLOUDY    57  42  57 NW9       29.90R
HARRISBURG     MOCLDY    56  41  57 NW14      29.88S
YORK           CLEAR     54  41  61 NW10      29.89S
$$

PAZ038>040-043-044-047-048-054-055-060>062-067>071-240800-
EASTERN PENNSYLVANIA

CITY           SKY/WX    TMP DP  RH WIND       PRES   REMARKS
SCRANTON       CLOUDY    51  43  74 N8        29.86S
MOUNT POCONO   CLOUDY    45  42  89 NW18G29   29.80R
ALLENTOWN      CLOUDY    54  43  66 NW14G20   29.83S
QUAKERTOWN*    MOSUNNY   52  45  76 N12G17    29.82F
READING        CLOUDY    56  44  64 NW12      29.85R
LANCASTER      CLOUDY    57  42  57 NW10      29.87R
COATESVILLE    CLOUDY    55  45  67 NW15      29.85R
POTTSTOWN      CLOUDY    54  44  69 NW10      29.85R
BLUE BELL      CLOUDY    54  46  76 NW3       29.82S
DOYLESTOWN     CLOUDY    51  45  79 NW3       29.81S
WILLOW GROVE   NOT AVBL
NORTH PHILA    CLEAR     54  43  66 N9        29.83R
PHILADELPHIA   MOCLDY    55  44  66 NW12      29.83S
$$



USA.gov is the U.S. government's official web portal to all federal, state and local government web resources and services.